Weather History for Driggs, ID

Change the Weather History Date:

Sunday, December 8, 2013

  Actual Average (KRXE) Record (KRXE)
Temperature  
Mean Temperature -6 °F 22 °F  
Max Temperature 5 °F 30 °F 46 °F (2006)
Min Temperature -17 °F 13 °F -16 °F (2013)
Degree Days  
Heating Degree Days 71 44  
Month to date heating degree days 340  
Since 1 July heating degree days 2352  
Cooling Degree Days 0 0  
Month to date cooling degree days 0  
Year to date cooling degree days 208  
Moisture  
Dew Point -8 °F    
Average Humidity 79    
Maximum Humidity 85    
Minimum Humidity 72    
Precipitation  
Precipitation 0.00 in 0.02 in 0.09 in (2008)
Month to date precipitation 0.20  
Year to date precipitation 12.23  
Sea Level Pressure  
Sea Level Pressure 29.98 in    
Wind  
Wind Speed 5 mph (NNE)    
Max Wind Speed 12 mph    
Max Gust Speed -    
Visibility 4 miles    
Events Snow    
T = Trace of Precipitation, MM = Missing Value Source: NWS Daily Summary

Daily Weather History Graph

Daily Weather History Graph

Search for Another Location

Airport:

Trip Planner

Search our weather history database for the weather conditions in past years. The results will help you decide how hot, cold, wet, or windy it might be!

Date:

Astronomy

Dec. 08, 2013 Rise Set
Actual Time 7:45 AM MST 4:47 PM MST
Civil Twilight 7:13 AM MST 5:19 PM MST
Nautical Twilight 6:36 AM MST 5:55 PM MST
Astronomical Twilight 6:02 AM MST 6:30 PM MST
Moon 11:58 AM MST (12/8) 11:50 PM MST (12/8)
Length of Visible Light 10h 06m
Length of Day
9h 01m
Waxing Crescent, 40% of the Moon is Illuminated
Dec 8
Waxing Crescent
Dec 9
First Quarter
Dec 17
Full
Dec 25
Last Quarter
Jan 1
New

Hourly Weather History & Observations

Time (MST) Temp. Windchill Dew Point Humidity Pressure Visibility Wind Dir Wind Speed Gust Speed Precip Events Conditions
12:21 AM 3.2 °F -9.1 °F -0.4 °F 85% 29.75 in 1.2 mi NE 6.9 mph - 0.00 in Snow Light Snow
12:33 AM 5.0 °F -5.6 °F -0.4 °F 78% 29.75 in 1.5 mi North 5.8 mph - 0.00 in Snow Light Snow
12:42 AM 3.2 °F -4.2 °F -0.4 °F 85% 29.75 in 3.0 mi NNE 3.5 mph - 0.00 in Snow Light Snow
12:56 AM 3.0 °F -4.4 °F -0.9 °F 84% 29.94 in 2.5 mi NE 3.5 mph - 0.00 in Snow Light Snow
1:03 AM 3.2 °F -7.8 °F -0.4 °F 85% 29.75 in 3.0 mi NE 5.8 mph - 0.00 in Snow Light Snow
1:17 AM 3.2 °F - -0.4 °F 85% 29.76 in 4.0 mi Calm Calm - 0.00 in Snow Light Snow
1:34 AM 1.4 °F -8.3 °F -2.2 °F 85% 29.76 in 2.5 mi West 4.6 mph - 0.00 in Snow Light Snow
1:49 AM 1.4 °F - -2.2 °F 85% 29.76 in 3.0 mi Calm Calm - 0.00 in Snow Light Snow
1:56 AM 2.1 °F - -1.8 °F 83% 29.96 in 3.0 mi Calm Calm - 0.00 in Snow Light Snow
2:56 AM 1.0 °F - -2.9 °F 83% 29.97 in 2.5 mi Calm Calm - 0.00 in Snow Light Snow
3:06 AM 1.4 °F -8.3 °F -2.2 °F 85% 29.78 in 4.0 mi North 4.6 mph - 0.00 in Snow Light Snow
3:14 AM 1.4 °F -6.2 °F -2.2 °F 85% 29.78 in 3.0 mi NNE 3.5 mph - 0.00 in Snow Light Snow
3:24 AM 1.4 °F -9.9 °F -2.2 °F 85% 29.78 in 2.5 mi North 5.8 mph - 0.00 in Snow Light Snow
3:31 AM 1.4 °F -11.3 °F -2.2 °F 85% 29.79 in 3.0 mi NW 6.9 mph - 0.00 in   Haze
3:56 AM 2.1 °F -10.4 °F -1.8 °F 83% 29.99 in 5.0 mi NNE 6.9 mph - 0.00 in Snow Light Snow
4:11 AM 1.4 °F -11.3 °F -2.2 °F 85% 29.80 in 2.0 mi NNE 6.9 mph - 0.00 in Snow Light Snow
4:27 AM 1.4 °F -12.5 °F -2.2 °F 85% 29.80 in 3.0 mi NNE 8.1 mph - 0.00 in Snow Light Snow
4:56 AM 1.0 °F -10.3 °F -4.0 °F 79% 30.01 in 2.5 mi NE 5.8 mph - 0.00 in Snow Light Snow
5:01 AM 1.4 °F -8.3 °F -4.0 °F 78% 29.81 in 3.0 mi NE 4.6 mph - 0.00 in Snow Light Snow
5:15 AM 1.4 °F -12.5 °F -4.0 °F 78% 29.82 in 2.5 mi NNE 8.1 mph - 0.00 in Snow Light Snow
5:21 AM 1.4 °F -12.5 °F -4.0 °F 78% 29.82 in 2.0 mi NE 8.1 mph - 0.00 in Snow Light Snow
5:41 AM -0.4 °F -14.7 °F -5.8 °F 78% 29.83 in 6.0 mi ESE 8.1 mph - 0.00 in Snow Light Snow
5:56 AM -0.9 °F -16.4 °F -4.9 °F 83% 30.04 in 3.0 mi ESE 9.2 mph - 0.00 in   Overcast
6:04 AM -0.4 °F -12.0 °F -5.8 °F 78% 29.84 in 3.0 mi ESE 5.8 mph - N/A   Overcast
6:14 AM -0.4 °F -12.0 °F -5.8 °F 78% 29.84 in 2.0 mi ESE 5.8 mph - 0.00 in Snow Light Snow
6:29 AM -2.2 °F -14.2 °F -7.6 °F 78% 29.85 in 2.0 mi SSE 5.8 mph - 0.00 in Snow Light Snow
6:33 AM -2.2 °F -12.5 °F -7.6 °F 78% 29.85 in 3.0 mi SSE 4.6 mph - 0.00 in Snow Light Snow
6:56 AM -1.8 °F -13.7 °F -6.0 °F 83% 30.08 in 2.5 mi South 5.8 mph - 0.00 in Snow Light Snow
7:13 AM -4.0 °F -16.3 °F -7.6 °F 85% 29.87 in 3.0 mi South 5.8 mph - 0.00 in Snow Light Snow
7:30 AM -5.8 °F -18.4 °F -9.4 °F 84% 29.87 in 5.0 mi South 5.8 mph - 0.00 in   Overcast
7:56 AM -6.9 °F -21.2 °F -10.8 °F 83% 30.11 in 8.0 mi South 6.9 mph - 0.00 in   Overcast
8:36 AM -5.8 °F -19.9 °F -9.4 °F 84% 29.88 in 2.5 mi South 6.9 mph - N/A   Overcast
8:44 AM -5.8 °F -18.4 °F -9.4 °F 84% 29.88 in 3.0 mi South 5.8 mph - N/A   Haze
8:56 AM -4.0 °F -16.3 °F -8.9 °F 80% 30.13 in 2.5 mi South 5.8 mph - N/A   Haze
9:03 AM -4.0 °F -16.3 °F -7.6 °F 85% 29.89 in 3.0 mi South 5.8 mph - N/A   Overcast
9:11 AM -2.2 °F -12.5 °F -7.6 °F 78% 29.89 in 1.8 mi South 4.6 mph - N/A   Haze
9:25 AM -2.2 °F -10.4 °F -7.6 °F 78% 29.91 in 3.0 mi South 3.5 mph - N/A   Haze
9:56 AM -1.8 °F -9.9 °F -6.9 °F 79% 30.17 in 10.0 mi NW 3.5 mph - N/A   Overcast
10:22 AM -0.4 °F - -5.8 °F 78% 29.94 in 5.0 mi Calm Calm - N/A   Haze
10:32 AM -0.4 °F - -5.8 °F 78% 29.94 in 3.0 mi Calm Calm - N/A   Haze
10:39 AM -0.4 °F - -7.6 °F 72% 29.93 in 2.5 mi Calm Calm - N/A   Haze
10:46 AM -0.4 °F - -7.6 °F 72% 29.93 in 4.0 mi Calm Calm - N/A   Haze
10:56 AM 0.1 °F - -6.0 °F 75% 30.17 in 7.0 mi Calm Calm - N/A   Overcast
11:21 AM 1.4 °F -11.3 °F -5.8 °F 72% 29.94 in 10.0 mi SSW 6.9 mph - N/A   Mostly Cloudy
11:40 AM -0.4 °F -10.4 °F -7.6 °F 72% 29.93 in 6.0 mi WNW 4.6 mph - N/A   Haze
11:56 AM -0.9 °F -11.0 °F -6.0 °F 79% 30.18 in 7.0 mi NW 4.6 mph - N/A   Mostly Cloudy
12:56 PM 0.1 °F - -6.0 °F 75% 30.17 in 10.0 mi Calm Calm - N/A   Mostly Cloudy
1:56 PM 1.0 °F -6.7 °F -4.9 °F 76% 30.16 in 8.0 mi NNW 3.5 mph - N/A   Scattered Clouds
2:56 PM 1.0 °F -11.7 °F -4.9 °F 76% 30.17 in 5.0 mi NNW 6.9 mph - 0.00 in Snow Light Snow
3:13 PM 1.4 °F -13.5 °F -5.8 °F 72% 29.91 in 2.5 mi NNW 9.2 mph - 0.00 in Snow Light Snow
3:23 PM -0.4 °F -14.7 °F -5.8 °F 78% 29.91 in 1.8 mi NNW 8.1 mph - 0.00 in Snow Light Snow
3:35 PM -0.4 °F -14.7 °F -5.8 °F 78% 29.91 in 1.5 mi North 8.1 mph - 0.00 in Snow Light Snow
3:47 PM -0.4 °F -13.4 °F -5.8 °F 78% 29.91 in 2.5 mi North 6.9 mph - 0.00 in Snow Light Snow
3:56 PM 0.1 °F -14.0 °F -6.0 °F 75% 30.18 in 3.0 mi NNW 8.1 mph - 0.00 in Snow Light Snow
4:18 PM -0.4 °F -14.7 °F -5.8 °F 78% 29.93 in 1.8 mi NNW 8.1 mph - 0.00 in Snow Light Snow
4:24 PM -0.4 °F -16.7 °F -5.8 °F 78% 29.93 in 1.0 mi NNW 10.4 mph - 0.00 in Snow Light Snow
4:34 PM -0.4 °F -17.6 °F -5.8 °F 78% 29.93 in 0.8 mi NNW 11.5 mph - 0.00 in Snow Light Snow
4:56 PM -0.9 °F -17.4 °F -6.0 °F 79% 30.21 in 0.8 mi NNW 10.4 mph - 0.00 in Snow Light Snow
5:14 PM -0.4 °F -15.7 °F -7.6 °F 72% 29.95 in 1.2 mi North 9.2 mph - 0.00 in Snow Light Snow
5:21 PM -0.4 °F -14.7 °F -7.6 °F 72% 29.95 in 2.0 mi North 8.1 mph - 0.00 in Snow Light Snow
5:48 PM -0.4 °F -12.0 °F -5.8 °F 78% 29.96 in 3.0 mi NNW 5.8 mph - 0.00 in Snow Light Snow
5:56 PM -0.9 °F -12.7 °F -6.9 °F 76% 30.25 in 2.5 mi North 5.8 mph - 0.00 in Snow Light Snow
6:14 PM -0.4 °F -13.4 °F -7.6 °F 72% 29.97 in 3.0 mi NNW 6.9 mph - 0.00 in Snow Light Snow
6:35 PM -2.2 °F -12.5 °F -7.6 °F 78% 29.98 in 2.5 mi NNW 4.6 mph - 0.00 in Snow Light Snow
6:56 PM -1.8 °F -12.0 °F -6.9 °F 79% 30.28 in 2.5 mi NNW 4.6 mph - 0.00 in Snow Light Snow
7:10 PM -2.2 °F -10.4 °F -7.6 °F 78% 29.99 in 4.0 mi North 3.5 mph - 0.00 in   Haze
7:30 PM -5.8 °F - -11.2 °F 77% 30.00 in 10.0 mi Calm Calm - 0.00 in   Overcast
7:56 PM -8.0 °F - -11.9 °F 83% 30.36 in 10.0 mi Calm Calm - 0.00 in   Overcast
8:24 PM -11.2 °F -20.6 °F -16.6 °F 77% 30.02 in 10.0 mi ESE 3.5 mph - N/A   Mostly Cloudy
8:32 PM -13.0 °F -22.7 °F -18.4 °F 77% 30.02 in 10.0 mi SE 3.5 mph - N/A   Scattered Clouds
8:56 PM -17.0 °F - -22.0 °F 78% 30.41 in 10.0 mi Calm Calm - N/A   Mostly Cloudy
9:25 PM -11.2 °F - -16.6 °F 77% 30.04 in 4.0 mi Calm Calm - N/A   Haze
9:33 PM -9.4 °F -18.6 °F -14.8 °F 77% 30.04 in 3.0 mi South 3.5 mph - N/A   Haze
9:42 PM -11.2 °F -20.6 °F -16.6 °F 77% 30.04 in 6.0 mi South 3.5 mph - N/A   Haze
9:56 PM -13.0 °F -25.1 °F -17.9 °F 79% 30.40 in 7.0 mi SSE 4.6 mph - N/A   Mostly Cloudy
10:16 PM -14.8 °F -24.8 °F -18.4 °F 84% 30.05 in 10.0 mi SSE 3.5 mph - N/A   Overcast
10:20 PM -14.8 °F -24.8 °F -20.2 °F 77% 30.05 in 10.0 mi South 3.5 mph - N/A   Overcast
10:29 PM -13.0 °F -22.7 °F -18.4 °F 77% 30.05 in 10.0 mi SSE 3.5 mph - N/A   Overcast
10:41 PM -14.8 °F - -18.4 °F 84% 30.06 in 10.0 mi Calm Calm - N/A   Overcast
10:56 PM -13.9 °F - -18.9 °F 78% 30.42 in 10.0 mi Calm Calm - N/A   Mostly Cloudy
11:09 PM -14.8 °F - -18.4 °F 84% 30.08 in 10.0 mi Calm Calm - N/A   Mostly Cloudy
11:56 PM -17.0 °F -29.7 °F -22.0 °F 78% 30.45 in 10.0 mi ESE 4.6 mph - N/A   Clear